Temperature
33 32 32 33 33 33 33 33 33 33 34 34 33 33 32 32 32 31 30 29 28 28 27 26 25 24 23 22 22 21 21 21 21 20 20 20 20 20 19 19 19 19 19 19
32 32 34 34 34 34 34 33 33 33 34 34 34 33 33 32 32 31 30 29 29 28 27 26 25 24 23 22 22 22 21 21 21 21 20 20 20 20 19 19 19 19 19 19
32 33 35 34 34 34 33 33 33 33 34 34 33 32 31 32 32 31 30 29 29 28 27 26 25 25 24 23 22 22 21 21 21 21 20 20 20 19 19 19 19 19 19 19
33 34 34 34 34 34 32 34 33 33 33 32 33 30 31 31 31 31 30 30 29 28 27 26 25 25 24 23 22 22 21 21 21 21 20 20 20 20 19 19 19 19 19 19
33 34 34 34 34 34 33 34 33 33 32 31 31 31 30 30 31 30 30 30 29 28 27 26 26 25 24 24 23 22 21 21 21 20 20 20 20 20 19 19 19 19 19 18
34 35 35 34 35 35 34 33 32 32 32 29 30 30 29 30 31 31 31 30 29 28 27 26 26 25 25 24 23 22 21 21 21 20 20 20 20 20 19 19 19 19 18 18
32 34 35 35 34 34 34 31 30 29 29 29 31 30 29 31 31 32 31 30 29 28 27 27 26 25 24 24 23 22 21 21 21 20 20 20 20 19 19 19 19 18 18 18
31 32 34 34 34 33 33 32 30 29 29 30 29 29 29 31 31 31 31 30 29 28 28 27 26 25 25 24 23 22 21 21 21 20 20 20 20 19 19 19 19 18 18 18
32 32 34 35 34 34 33 32 33 32 31 29 29 28 29 31 31 31 31 30 29 28 28 27 26 26 25 24 23 22 22 21 20 20 20 20 19 19 19 19 18 18 18 18
33 32 33 34 34 34 34 33 33 31 29 28 29 28 29 29 30 31 30 29 28 28 27 27 26 25 25 24 23 23 22 21 20 20 20 19 19 19 19 18 18 18 18 18
33 32 32 33 32 32 32 32 32 32 31 29 28 29 30 30 30 30 30 29 28 28 27 27 26 25 25 24 23 22 22 21 20 20 19 19 19 19 18 18 18 18 18 18
33 32 31 32 33 34 33 32 32 31 30 30 30 29 31 30 30 30 29 28 28 28 27 26 25 25 24 24 23 22 21 21 20 20 19 19 19 18 18 18 18 18 17 17
31 30 29 30 31 32 32 32 32 32 31 31 30 29 30 29 29 29 28 28 27 26 26 26 25 24 24 23 23 22 21 20 20 19 19 19 18 18 18 18 17 17 17 17
30 30 30 29 30 31 31 31 32 31 31 30 30 29 29 29 29 28 28 27 26 26 25 25 24 23 23 22 22 22 21 20 19 19 19 18 18 18 18 17 17 17 17 17
31 30 30 30 31 32 32 32 32 31 31 30 30 30 30 29 29 28 27 26 26 25 25 24 23 23 22 22 21 21 20 20 19 19 18 18 18 18 17 17 17 17 17 17
30 29 29 30 31 32 32 32 32 31 31 31 31 30 30 29 28 27 27 26 25 25 24 23 23 22 21 21 21 20 20 19 19 18 18 18 17 17 17 17 17 17 16 16
29 29 28 28 30 30 30 31 31 31 32 31 30 29 29 28 28 27 26 25 24 24 23 22 22 21 21 20 20 19 19 19 19 18 18 17 17 17 17 17 16 16 16 16
28 27 28 28 28 27 30 31 31 30 31 31 30 29 28 27 26 25 25 24 23 23 22 22 21 21 20 20 19 19 19 18 18 18 17 17 17 17 17 16 16 16 16 16
29 28 27 27 27 28 30 30 30 29 29 30 29 28 27 26 26 24 23 23 22 22 21 21 21 20 20 19 19 19 18 18 18 17 17 17 17 16 16 16 16 16 15 15
29 28 27 27 26 26 28 29 30 29 27 28 28 27 27 26 26 24 22 21 21 21 20 20 20 20 19 19 18 18 18 17 17 17 17 17 17 16 16 16 16 15 15 15
27 27 27 26 26 27 28 28 29 27 26 26 26 25 25 24 23 22 21 20 20 20 20 19 19 19 18 18 18 17 17 17 17 17 16 16 16 16 16 15 15 15 15 15
27 26 26 26 25 25 26 27 26 25 25 25 24 24 23 22 22 21 20 20 19 19 19 19 18 18 17 17 17 17 17 16 16 16 16 16 16 15 15 15 15 15 15 14
26 26 26 25 24 24 24 24 24 24 24 23 23 22 22 22 21 20 20 19 19 18 18 18 17 17 17 16 16 16 16 16 16 16 16 16 15 15 15 15 15 14 14 14
26 26 25 24 24 24 24 24 23 23 23 22 22 22 21 21 20 20 19 19 18 18 17 17 17 16 16 16 16 16 16 16 15 15 15 15 15 15 15 14 14 14 14 14
23 24 24 23 23 23 23 22 22 22 22 21 21 20 20 20 20 19 19 18 18 17 17 16 16 16 16 15 15 15 15 15 15 15 15 15 15 15 14 14 14 14 14 14
23 23 23 22 22 22 22 21 21 21 20 20 20 20 20 19 19 19 18 18 17 17 16 16 15 15 15 15 15 15 15 15 15 15 14 14 14 14 14 14 14 14 13 13
Wind_Speed
12 12 11 9 9 9 9 7 4 3 4 6 5 6 8 8 8 9 9 9 10 10 11 11 10 11 11 9 8 6 6 5 4 3 3 3 2 2 3 3 4 4 2 2
13 15 13 11 11 11 11 8 7 5 5 5 4 5 6 8 8 8 9 9 10 10 11 12 12 11 11 10 9 8 6 6 6 4 3 3 3 2 3 3 3 3 3 2
16 12 10 11 12 11 11 9 8 9 6 7 6 5 4 6 6 6 7 7 8 10 10 11 11 11 11 10 10 8 7 7 6 5 4 3 3 2 2 3 3 2 3 3
15 14 11 12 13 11 11 8 10 11 9 7 7 5 5 6 6 6 6 7 7 8 8 10 11 11 10 11 10 9 8 7 6 5 4 4 4 3 2 2 3 3 2 3
15 14 13 14 12 11 10 9 10 12 10 9 8 6 4 6 7 7 7 8 7 8 8 8 10 11 10 10 10 10 8 8 7 6 5 3 3 3 3 3 4 3 3 3
17 14 12 13 11 11 10 9 11 11 9 9 10 9 5 5 5 8 9 8 8 9 9 8 8 8 8 9 10 10 9 8 8 7 6 5 4 4 4 4 4 3 3 2
17 17 14 12 12 11 11 8 7 8 8 10 9 8 5 5 5 5 7 8 8 9 10 9 8 8 7 8 10 11 11 9 8 7 6 5 5 5 5 4 3 3 3 3
14 14 14 13 12 11 11 12 10 10 10 8 6 5 3 3 3 4 6 7 6 6 8 8 9 8 8 8 9 11 11 9 9 8 6 5 5 4 3 3 2 2 2 2
11 13 12 12 11 13 12 12 12 11 12 8 5 5 5 4 4 5 6 7 6 4 5 6 7 8 8 8 8 11 11 9 8 8 7 5 4 3 3 3 2 2 1 2
13 13 12 9 10 14 14 13 9 9 8 10 7 7 5 4 4 5 5 5 6 5 5 5 6 7 7 7 9 10 11 9 8 7 7 6 5 4 3 3 3 2 2 1
15 14 13 10 12 12 12 13 11 9 9 9 8 4 3 6 5 5 6 6 5 5 5 5 6 6 6 7 7 9 10 9 8 7 6 6 6 5 4 4 3 2 2 2
11 12 13 13 12 12 13 13 14 10 9 10 10 3 3 2 3 4 6 6 6 5 5 5 6 6 6 6 6 7 8 9 8 7 6 6 5 5 5 4 4 3 2 2
6 9 11 12 10 10 11 12 12 13 11 10 10 3 3 3 4 5 5 7 7 6 6 5 5 5 5 5 5 5 6 6 6 7 7 6 5 5 4 4 4 3 3 2
6 11 12 12 10 10 11 13 12 12 10 10 9 5 6 4 6 6 6 7 7 6 4 5 5 5 5 4 4 4 5 5 5 5 5 5 5 5 4 4 4 3 3 3
8 12 13 14 16 16 14 12 11 12 12 10 7 4 4 5 6 6 6 6 5 5 5 5 5 5 4 4 4 3 3 3 4 4 4 3 4 4 4 3 3 3 3 3
8 10 13 15 16 14 14 12 11 11 11 9 7 3 4 6 5 5 6 5 5 4 3 3 4 4 4 3 3 3 3 3 3 3 3 2 2 3 3 3 3 3 2 2
9 9 12 13 14 15 14 11 9 10 9 7 5 2 5 4 4 4 4 4 4 3 3 3 3 3 3 3 2 2 2 3 3 3 3 3 3 3 3 4 4 4 3 3
10 9 9 12 13 16 11 7 7 8 6 4 2 3 5 5 5 5 5 4 4 4 4 4 3 3 3 3 2 2 2 3 3 3 3 3 3 3 3 3 3 3 3 3
12 9 10 10 13 13 9 6 6 4 4 4 1 3 5 6 6 7 7 6 6 5 5 3 3 3 3 3 2 2 2 2 3 3 3 3 3 3 3 3 3 2 2 3
12 9 11 11 13 12 6 6 5 4 4 2 1 2 3 2 2 4 6 6 6 6 5 4 4 4 4 3 2 1 2 2 1 2 2 2 3 3 3 3 2 2 2 3
11 11 13 13 14 8 5 7 6 6 1 5 4 5 4 5 5 5 6 6 5 5 5 5 5 5 5 4 3 2 2 1 0 1 2 2 2 3 3 2 2 2 3 3
9 9 10 10 11 6 7 5 3 4 6 7 6 7 7 7 6 5 6 5 5 4 4 4 4 4 4 3 3 2 2 2 1 0 1 1 2 3 2 2 3 3 3 3
7 5 4 3 2 2 5 5 4 4 5 6 5 5 6 5 5 5 5 4 4 4 3 3 3 3 3 3 2 2 2 2 1 0 0 1 1 2 2 3 3 3 3 3
5 5 4 3 1 0 2 3 4 5 5 5 5 4 4 4 3 4 3 3 2 2 2 2 3 3 3 3 3 2 2 1 0 1 1 2 2 2 2 2 2 3 3 3
7 6 4 4 3 3 2 4 4 4 4 4 4 4 3 2 2 2 2 2 1 1 2 2 2 2 2 2 2 2 2 2 1 1 2 2 2 1 1 2 2 3 2 2
7 6 5 4 3 3 3 3 4 4 4 4 3 3 3 3 1 0 1 1 1 2 2 2 1 1 2 2 2 2 2 1 1 2 2 3 2 1 2 2 2 1 1 3
Wind_Direction
241 242 248 249 247 262 272 278 271 238 247 244 209 179 171 179 174 166 168 179 180 175 164 159 161 157 152 149 150 156 157 152 152 160 172 178 163 145 130 124 119 117 104 90
243 244 247 250 252 259 264 264 275 265 254 259 217 197 185 169 181 183 179 181 179 175 164 162 167 166 162 157 157 160 165 161 167 167 170 165 152 151 140 123 118 133 120 93
238 247 245 256 257 259 267 262 272 277 271 262 252 222 196 181 177 177 175 180 174 179 174 171 170 170 169 165 167 172 171 167 173 169 166 162 141 148 132 132 132 127 127 121
246 249 246 251 255 254 266 266 269 271 270 269 255 252 204 194 182 184 180 176 174 171 174 177 173 175 177 171 170 167 165 165 171 170 174 173 159 162 150 139 131 140 133 124
248 248 245 250 255 259 266 274 276 277 273 271 277 268 236 204 197 175 186 178 165 167 172 180 176 174 178 172 168 166 163 165 169 174 167 172 163 160 146 143 145 152 143 125
257 255 251 256 256 257 264 274 280 275 271 260 254 259 247 223 210 178 182 165 159 159 167 175 172 164 172 169 164 161 160 165 166 171 171 173 170 168 154 153 162 171 154 142
250 250 245 249 251 249 253 256 262 262 254 253 255 253 239 213 212 178 157 154 167 167 173 175 166 162 163 164 166 162 159 164 167 172 175 174 172 174 168 172 173 177 161 150
241 244 238 239 245 253 250 247 247 262 268 269 278 271 254 225 177 138 136 134 149 177 170 168 169 163 161 167 165 156 155 163 169 173 174 171 176 189 174 171 168 160 155 148
249 250 239 235 240 250 252 255 263 271 278 280 264 249 227 214 162 144 124 121 141 178 162 158 160 158 158 164 160 156 153 160 166 169 165 164 173 179 168 156 159 156 156 160
256 266 256 238 237 241 248 260 265 265 270 275 255 239 216 196 190 149 133 142 153 152 143 145 146 146 152 167 158 153 152 160 164 164 172 169 171 169 167 152 155 160 165 146
254 262 261 242 231 242 246 251 259 267 268 273 275 256 183 168 176 167 156 153 136 134 127 131 134 136 150 147 147 156 155 160 164 168 167 165 171 174 175 167 170 169 174 168
254 258 262 257 242 239 246 245 252 255 259 264 268 250 82 70 122 134 128 122 106 97 112 118 123 132 136 140 143 147 157 165 165 163 166 173 169 174 183 174 174 171 180 193
286 261 259 258 242 225 238 247 257 265 263 263 267 234 142 142 119 110 117 105 97 84 92 103 109 114 119 122 131 140 151 153 156 163 170 175 178 180 179 176 181 181 184 194
285 265 260 257 264 248 238 247 252 258 262 262 259 222 176 161 125 122 111 105 104 98 91 90 90 86 88 101 103 118 134 141 150 154 165 171 176 173 179 181 179 185 183 180
257 263 265 262 265 262 248 243 246 251 259 264 266 240 185 145 130 130 126 118 112 96 82 77 78 82 86 95 105 113 127 131 139 144 156 165 169 169 175 177 178 183 194 196
257 269 276 273 270 272 269 257 248 247 255 256 261 259 123 128 122 135 138 136 127 111 91 70 72 80 83 82 97 112 123 124 131 147 155 147 164 171 172 179 176 182 194 208
272 273 274 273 275 272 265 269 273 275 264 269 261 188 127 113 121 132 125 119 111 103 88 73 64 76 89 92 111 127 131 131 136 149 153 157 176 188 188 194 188 196 200 204
253 266 270 269 269 261 260 262 263 271 281 274 268 129 129 122 111 96 89 92 87 77 74 59 43 63 97 106 99 112 123 134 150 161 169 172 184 186 186 205 205 206 206 213
252 251 259 264 265 263 264 269 261 259 289 301 317 104 117 123 114 80 67 68 74 69 63 48 27 28 61 75 71 124 154 152 162 173 182 184 192 198 200 211 212 207 209 219
236 238 245 255 262 265 283 317 308 277 252 357 75 114 128 136 159 92 72 67 61 60 59 42 32 40 63 62 65 74 154 155 174 188 198 198 197 208 211 214 206 209 217 228
224 230 239 250 259 266 306 311 295 271 25 44 74 80 73 57 66 83 79 70 61 56 58 52 42 41 58 55 51 53 70 105 208 222 213 207 194 204 210 203 205 210 222 226
248 243 241 251 257 265 348 341 360 48 61 60 59 68 77 79 80 79 80 73 59 51 48 52 50 43 53 55 53 45 34 19 35 55 243 214 202 225 219 198 210 211 217 223
272 287 272 279 282 35 30 47 46 45 59 61 64 70 84 84 82 77 80 72 60 54 44 40 46 47 49 49 47 25 11 17 34 16 294 255 233 236 223 213 221 215 211 228
293 327 307 305 270 39 43 48 54 47 50 51 58 59 74 83 74 80 75 73 63 57 42 39 44 43 34 27 24 8 5 11 7 296 268 248 230 242 218 219 223 219 221 227
305 309 306 294 302 321 30 28 36 41 38 37 45 32 27 56 56 88 92 86 79 69 45 39 48 45 30 23 19 7 19 10 346 299 278 270 251 232 221 233 252 240 224 226
289 292 287 288 328 329 345 19 10 16 14 16 16 7 2 2 350 110 132 113 77 56 52 38 22 3 357 354 359 12 12 357 310 284 283 282 273 238 241 240 261 341 249 200
Height
1478 1480 1479 1474 1470 1470 1471 1474 1475 1471 1464 1466 1469 1472 1473 1476 1479 1483 1487 1491 1494 1497 1501 1503 1506 1509 1510 1512 1514 1516 1517 1518 1520 1521 1522 1524 1525 1526 1526 1526 1526 1527 1527 1527
1477 1477 1469 1466 1465 1467 1468 1475 1475 1468 1462 1464 1467 1471 1470 1473 1478 1480 1483 1487 1492 1495 1498 1501 1504 1507 1509 1510 1512 1514 1516 1517 1518 1520 1522 1523 1525 1525 1526 1526 1526 1526 1527 1527
1475 1469 1464 1465 1466 1468 1469 1471 1473 1472 1464 1462 1469 1476 1473 1472 1475 1478 1481 1485 1488 1491 1496 1499 1502 1505 1507 1509 1510 1512 1514 1515 1517 1519 1521 1523 1524 1524 1525 1525 1525 1526 1526 1526
1467 1462 1462 1465 1466 1466 1473 1463 1465 1466 1472 1476 1472 1491 1480 1473 1475 1477 1479 1482 1486 1489 1493 1497 1499 1502 1505 1507 1509 1511 1512 1514 1516 1517 1519 1521 1522 1523 1523 1524 1525 1525 1526 1526
1465 1460 1462 1464 1462 1461 1465 1460 1463 1466 1471 1478 1477 1487 1485 1473 1475 1475 1477 1479 1482 1486 1490 1494 1497 1499 1502 1505 1507 1508 1510 1512 1514 1516 1517 1519 1520 1521 1522 1523 1524 1525 1525 1525
1460 1456 1456 1457 1456 1457 1458 1464 1466 1467 1473 1493 1483 1489 1491 1476 1472 1471 1473 1477 1481 1484 1488 1492 1494 1497 1500 1502 1505 1506 1508 1510 1512 1513 1515 1517 1518 1520 1521 1522 1523 1524 1524 1524
1465 1457 1454 1455 1458 1457 1460 1475 1492 1497 1495 1493 1475 1482 1483 1468 1466 1467 1470 1475 1480 1482 1486 1489 1492 1495 1497 1500 1502 1504 1506 1508 1510 1511 1513 1515 1517 1518 1519 1520 1521 1522 1523 1523
1473 1470 1454 1452 1456 1461 1461 1468 1490 1502 1498 1488 1480 1487 1478 1465 1465 1467 1470 1474 1479 1481 1483 1485 1489 1492 1495 1498 1500 1502 1503 1506 1508 1510 1511 1513 1515 1516 1518 1519 1520 1521 1521 1522
1466 1465 1448 1448 1450 1455 1463 1463 1459 1472 1478 1490 1488 1483 1475 1466 1465 1467 1469 1473 1479 1480 1482 1484 1487 1490 1493 1496 1498 1500 1501 1504 1506 1508 1509 1511 1513 1514 1516 1517 1518 1519 1520 1521
1454 1464 1451 1447 1449 1450 1453 1454 1461 1474 1492 1500 1491 1486 1480 1470 1467 1468 1470 1475 1477 1480 1481 1483 1485 1488 1491 1493 1495 1498 1500 1502 1504 1506 1508 1509 1511 1512 1514 1515 1516 1517 1518 1518
1449 1461 1457 1451 1456 1458 1457 1458 1460 1465 1470 1490 1500 1489 1462 1464 1464 1467 1469 1474 1476 1478 1480 1482 1484 1487 1490 1492 1494 1497 1498 1500 1502 1504 1506 1508 1509 1510 1512 1513 1513 1514 1515 1516
1449 1455 1462 1454 1445 1445 1450 1454 1458 1471 1476 1473 1481 1482 1458 1462 1464 1467 1470 1474 1476 1478 1480 1483 1485 1487 1489 1492 1493 1495 1497 1499 1500 1502 1504 1506 1507 1508 1510 1511 1511 1512 1513 1514
1453 1460 1473 1468 1458 1450 1452 1450 1451 1455 1461 1469 1478 1479 1462 1464 1466 1469 1472 1474 1477 1480 1482 1484 1486 1488 1490 1492 1493 1495 1496 1498 1499 1501 1502 1504 1505 1506 1508 1509 1509 1510 1510 1511
1457 1459 1467 1475 1466 1455 1457 1454 1451 1457 1466 1469 1469 1470 1466 1464 1467 1471 1472 1476 1479 1482 1484 1485 1487 1488 1490 1492 1493 1494 1496 1497 1498 1499 1501 1502 1503 1504 1505 1506 1507 1508 1509 1509
1455 1460 1458 1455 1450 1448 1448 1449 1449 1455 1457 1463 1462 1462 1461 1463 1467 1471 1474 1478 1480 1482 1484 1486 1488 1489 1490 1492 1493 1494 1495 1496 1497 1498 1499 1500 1501 1502 1503 1504 1505 1506 1507 1507
1454 1460 1459 1458 1449 1445 1446 1444 1446 1450 1450 1452 1456 1461 1459 1463 1467 1471 1474 1477 1479 1482 1485 1487 1488 1489 1490 1491 1492 1493 1493 1494 1495 1496 1497 1498 1499 1500 1501 1502 1503 1504 1504 1505
1458 1461 1466 1465 1454 1451 1457 1447 1447 1448 1445 1450 1459 1461 1461 1465 1468 1472 1475 1477 1480 1483 1485 1487 1488 1489 1490 1490 1491 1491 1492 1492 1493 1494 1496 1497 1497 1498 1499 1500 1501 1501 1502 1502
1460 1464 1465 1464 1464 1475 1454 1441 1442 1448 1448 1449 1453 1457 1462 1466 1470 1473 1475 1478 1481 1483 1485 1487 1488 1488 1489 1489 1490 1490 1491 1491 1492 1493 1494 1495 1495 1496 1497 1498 1498 1499 1499 1500
1453 1459 1465 1467 1470 1463 1450 1444 1445 1450 1455 1451 1455 1459 1463 1465 1469 1474 1477 1479 1482 1483 1485 1487 1488 1488 1488 1488 1488 1489 1490 1490 1491 1491 1492 1492 1493 1494 1495 1495 1496 1497 1497 1497
1451 1454 1463 1466 1473 1473 1459 1447 1445 1449 1460 1456 1458 1460 1464 1466 1470 1478 1480 1481 1483 1484 1485 1486 1487 1487 1487 1487 1487 1488 1488 1489 1489 1489 1490 1490 1491 1491 1492 1493 1493 1494 1494 1494
1456 1458 1461 1464 1468 1462 1455 1451 1450 1464 1468 1461 1461 1463 1467 1470 1474 1479 1480 1482 1483 1484 1484 1485 1486 1486 1486 1486 1486 1486 1487 1487 1487 1488 1488 1488 1489 1489 1490 1490 1491 1491 1491 1492
1454 1457 1460 1461 1469 1472 1458 1455 1460 1466 1464 1464 1466 1467 1470 1473 1476 1479 1480 1482 1483 1484 1484 1485 1485 1485 1485 1485 1485 1485 1485 1486 1486 1486 1486 1486 1487 1487 1488 1488 1488 1488 1489 1489
1452 1453 1455 1461 1467 1464 1463 1463 1465 1466 1467 1468 1470 1471 1472 1475 1477 1479 1481 1482 1484 1484 1485 1485 1485 1485 1485 1485 1484 1484 1484 1484 1484 1484 1484 1484 1484 1485 1485 1485 1486 1486 1486 1486
1453 1454 1456 1460 1462 1463 1464 1466 1467 1468 1469 1471 1472 1473 1474 1476 1477 1479 1480 1482 1483 1484 1484 1484 1484 1484 1484 1484 1484 1483 1483 1482 1482 1482 1482 1482 1482 1483 1483 1483 1483 1483 1483 1483
1461 1460 1460 1463 1463 1464 1465 1468 1469 1470 1471 1472 1473 1474 1475 1476 1477 1479 1480 1482 1482 1483 1483 1483 1483 1483 1483 1482 1482 1482 1481 1481 1481 1480 1480 1480 1481 1481 1480 1480 1481 1481 1481 1481
1464 1463 1464 1466 1466 1468 1469 1470 1471 1472 1473 1473 1474 1475 1476 1477 1478 1479 1480 1481 1481 1482 1482 1482 1482 1482 1481 1481 1481 1480 1480 1479 1479 1479 1479 1479 1478 1478 1478 1478 1478 1478 1478 1478